#timestamp,LO_Frequency,Hit,StdDev 
1602674855.5,286046977.8,P
1602674875.3,286046977.9,P
1602674895.2,286046979.9,P
1602674915.0,286046979.1,Y
1602674915.9,286046979.1,P
1602674935.8,286047000.1,N
1602674955.6,286047001.0,N
1602674975.4,286046998.7,N
1602674995.3,286046998.3,N
1602675015.1,286047001.1,N
1602675035.9,286046998.9,N
1602675055.7,286047000.8,N
1602675075.5,286046998.4,N
1602675095.4,286047000.7,N
1602675115.2,286046999.8,N
1602675135.0,286046998.6,N
1602675135.9,286046998.6,N
1602675155.8,286046998.2,N
1602675175.6,286047000.0,N
1602675195.5,286047000.7,N
1602675215.3,286046999.9,N
1602675235.1,286046998.3,N
1602675255.9,286046999.6,N
1602675275.7,286046996.5,N
1602675295.6,286047001.2,N
1602675315.4,286047002.4,N
1602675335.2,286047001.0,N
1602675355.1,286047011.9,N
1602675356.0,286046998.7,N
1602675375.8,286046998.6,N
1602675395.7,286047000.5,N
1602675415.5,286047000.1,N
1602675435.3,286047000.3,N
1602675455.2,286046998.2,N
1602675475.0,286046998.5,N
1602675475.9,286046998.5,N
1602675495.7,286047001.0,N
1602675515.6,286047002.3,N
1602675535.4,286047002.5,N
1602675555.3,286047000.2,N
1602675575.1,286046998.7,N
1602675595.8,286047001.0,N
1602675615.7,286047002.7,N
1602675635.5,286047001.9,N
1602675655.3,286047002.2,N
1602675675.2,286046999.9,N
1602675695.0,286047000.8,N
1602675695.9,286047000.8,N
1602675715.8,286047002.8,N
1602675735.6,286047002.6,N
1602675755.4,286046999.7,N
1602675775.3,286047000.8,N
1602675795.1,286047000.9,N
1602675815.9,286047000.4,N
1602675835.7,286047001.1,N
1602675855.5,286046999.4,N
1602675875.4,286046997.0,N
1602675895.2,286046997.3,N
1602675915.0,286046998.2,N
1602675915.9,286046998.2,N
1602675935.8,286046997.7,N
1602675955.6,286046995.1,N
1602675975.5,286046996.3,N
1602675995.3,286046997.9,N
1602676015.1,286046998.2,N
1602676035.9,286046998.7,N
1602676055.7,286046998.4,N
1602676075.5,286046996.7,N
1602676095.4,286046996.3,N
1602676115.2,286046993.5,Y
1602676135.1,286046995.4,P
1602676136.0,286046995.4,N
1602676155.8,286046993.5,P
1602676175.6,286046993.3,Y
1602676195.5,286046997.1,P
1602676215.3,286046995.9,P
1602676235.1,286046996.3,P
1602676255.9,286046995.0,Y
1602676275.7,286047000.9,P
1602676295.6,286047000.6,N
1602676315.4,286047001.2,N
1602676335.2,286047000.6,N
1602676355.1,286046999.4,N
1602676356.0,286046999.4,N
1602676375.8,286046999.1,N
1602676395.7,286046998.3,N
1602676415.5,286046996.6,N
1602676435.3,286046999.1,N
1602676455.2,286046999.9,N
1602676475.9,286047002.6,N
1602676495.7,286047000.3,N
1602676515.6,286047000.6,N
1602676535.4,286047001.7,N
1602676555.3,286046999.8,N
1602676575.1,286046999.8,N
1602676576.0,286046999.8,N
1602676595.8,286047001.6,N
1602676615.7,286047000.1,N
1602676635.5,286047000.0,N
1602676655.3,286047002.4,N
1602676675.2,286047000.5,N
1602676695.0,286047001.2,N
1602676695.9,286047001.2,N
1602676715.8,286047000.6,N
1602676735.6,286047001.1,N
1602676755.4,286047001.0,N
1602676775.3,286046998.9,N
1602676795.1,286046996.6,N
